Wind_Speed
4 4 2 2 3 3 2 3 2 7 9 7 17 4 6 3 1 4 9 28 17 17 13 9 9 9 11 11 13 13 15 13 15 15 15 13 13 13 13 13 13 14 13 14 16 15 14 14 13
2 6 1 1 4 4 3 2 5 4 6 17 8 6 7 4 4 8 14 21 19 17 14 11 8 10 10 12 12 13 15 15 15 15 14 13 13 13 12 11 12 11 12 13 14 13 13 12 10
1 5 1 3 3 3 4 2 9 9 5 6 5 7 4 2 6 12 9 18 22 17 14 13 11 10 11 11 12 13 14 14 13 14 13 14 12 12 12 12 11 11 11 12 12 11 12 12 13
1 1 1 4 3 2 5 8 4 5 8 7 10 8 5 4 10 9 24 24 21 17 14 12 13 11 11 12 12 13 14 14 13 13 13 13 11 11 11 10 10 9 10 11 11 11 10 11 11
2 2 4 3 2 2 6 7 10 6 4 7 4 5 3 2 11 25 25 23 21 18 15 14 13 12 12 13 13 13 14 15 14 14 12 11 10 9 8 7 7 8 9 10 11 12 11 11 11
3 2 2 3 3 5 5 7 10 12 12 14 11 7 2 15 25 24 25 22 20 19 16 15 13 12 13 13 13 13 14 14 14 12 11 10 10 9 8 9 9 7 8 9 10 12 10 12 12
1 2 1 2 6 4 7 9 11 13 12 6 12 5 3 8 19 24 23 21 21 18 17 15 14 12 13 14 14 14 14 14 12 12 11 11 11 9 8 7 7 7 8 9 10 9 9 11 10
2 2 2 3 5 4 8 4 14 17 4 13 11 6 6 10 18 22 22 22 19 17 16 17 15 14 15 14 13 13 13 13 13 12 12 11 11 9 8 8 8 8 8 8 9 9 9 9 8
3 3 2 3 1 2 3 6 4 6 14 4 2 7 13 24 24 25 21 20 18 16 16 16 16 16 15 14 12 13 12 12 12 11 12 11 11 10 9 9 9 8 8 7 6 6 5 5 5
3 2 2 2 3 5 7 13 8 7 12 8 14 16 23 26 27 22 17 16 19 17 17 16 16 17 16 15 14 14 13 14 14 12 11 10 10 9 10 9 9 8 7 8 7 5 3 1 2
4 5 6 7 6 3 6 2 4 17 6 15 21 19 19 22 18 19 17 21 24 22 19 18 18 18 18 16 16 16 14 14 14 12 10 9 9 8 7 5 4 5 4 3 2 1 1 5 8
4 6 6 7 4 2 4 6 3 16 8 17 20 23 22 15 18 18 20 18 19 23 21 19 18 18 17 18 17 16 14 14 14 13 9 9 8 8 6 2 1 2 3 1 2 4 6 7 8
3 6 7 3 4 2 4 8 3 13 18 18 21 19 19 16 18 17 21 22 23 23 21 20 20 17 18 18 16 14 13 13 12 10 7 10 8 7 5 6 3 3 4 4 3 7 7 7 6
5 8 5 2 4 3 3 5 3 10 17 20 20 19 17 17 21 21 20 21 26 23 24 23 20 19 18 15 14 14 14 13 11 10 7 10 7 4 4 4 4 4 4 5 4 5 6 8 8
12 7 4 1 1 3 4 7 7 16 17 21 19 16 17 19 24 26 26 27 30 28 26 24 21 18 17 16 12 13 13 14 12 8 9 9 6 3 4 3 3 5 7 5 5 3 6 8 4
5 4 2 3 3 1 6 4 2 18 20 20 19 16 17 18 28 27 27 28 29 28 25 24 21 21 19 16 14 14 14 11 13 11 9 8 7 6 3 3 3 11 9 7 4 4 5 2 1
6 2 3 3 8 3 2 3 6 14 20 18 18 16 16 16 20 23 26 31 33 31 29 23 20 22 19 14 14 17 16 10 12 10 7 8 9 7 6 4 5 5 4 8 5 8 3 5 4
2 4 7 3 4 3 5 7 6 4 14 19 15 13 18 19 18 27 27 31 34 33 30 25 24 23 19 14 15 16 15 14 14 10 10 7 6 7 6 5 4 6 5 7 6 9 8 3 4
5 5 10 3 3 3 3 3 9 9 3 11 10 17 17 20 19 26 26 29 31 31 30 28 26 22 22 19 16 13 15 15 13 11 9 8 7 5 5 3 5 6 6 9 11 11 10 10 4
9 9 4 4 3 1 5 9 6 9 4 2 7 18 19 15 15 20 24 24 29 34 32 29 26 24 22 18 18 14 18 15 11 7 7 9 7 5 3 5 7 5 6 8 10 11 10 9 8
2 6 7 6 6 3 1 3 4 6 1 4 4 11 19 20 19 16 22 25 28 32 33 31 29 28 23 18 16 16 14 13 13 11 10 7 6 5 2 2 2 2 4 7 9 10 10 10 13
5 6 8 14 6 2 1 3 6 7 6 4 3 4 14 20 18 19 23 24 26 31 31 32 31 28 24 21 16 18 16 15 12 13 12 10 8 7 4 1 2 1 3 5 7 7 9 10 7
4 12 11 5 4 5 5 2 3 9 7 7 8 6 7 20 21 22 26 28 30 29 34 33 28 26 25 23 20 18 16 15 12 13 13 11 10 10 8 6 7 4 5 6 5 6 5 7 9
17 9 6 0 2 2 5 3 4 7 19 13 7 7 7 15 18 21 27 26 24 26 31 33 29 27 25 23 20 17 16 15 13 16 15 15 14 10 12 11 9 6 5 5 6 4 2 3 6
6 5 2 1 2 3 4 2 9 9 9 18 14 7 9 7 15 15 14 21 22 27 30 35 32 30 26 24 22 19 17 16 16 15 16 14 17 17 13 11 12 9 5 8 5 4 4 1 1
7 6 5 6 4 3 3 5 5 6 9 15 5 8 10 8 14 16 21 23 27 30 30 32 34 31 27 25 24 20 18 16 16 13 13 14 15 18 16 14 12 13 8 6 9 6 5 4 3
6 4 4 7 3 3 3 6 5 9 5 15 20 22 15 10 7 16 20 25 28 27 32 36 36 33 28 26 23 21 19 17 16 13 12 15 14 13 14 15 15 14 11 10 8 6 4 3 3
7 6 2 2 5 3 4 6 4 8 11 12 14 20 20 22 11 7 16 25 29 34 36 36 36 34 30 26 24 20 19 16 15 14 14 11 12 12 12 15 15 13 13 11 10 8 6 4 2
1 2 5 5 4 5 3 6 8 14 13 15 14 19 19 20 18 10 10 21 29 32 35 36 34 34 30 26 24 21 19 16 14 12 11 10 7 9 11 13 15 13 13 13 12 11 10 9 6
2 0 4 5 4 2 4 6 4 8 7 10 12 14 13 16 15 15 13 15 23 28 31 33 31 31 29 27 23 22 19 17 16 15 14 13 11 9 7 11 13 10 11 9 11 11 12 11 9
Wind_Direction
188 174 177 108 64 74 76 18 138 121 147 210 160 168 124 22 123 185 157 167 175 172 169 154 135 123 112 108 107 108 111 111 116 117 120 117 119 115 112 113 107 101 99 100 102 99 96 96 101
186 154 189 6 76 71 26 356 98 87 118 100 97 107 63 56 63 108 126 168 178 172 165 155 142 129 127 122 118 114 115 117 117 120 118 117 117 115 114 106 103 102 95 100 99 95 86 82 112
209 167 108 94 101 127 130 4 117 109 97 96 111 75 74 82 105 133 157 168 169 168 165 156 156 146 142 129 124 121 122 122 116 119 118 114 111 114 116 105 103 104 98 102 99 96 85 80 88
25 116 62 80 59 10 131 162 157 99 73 54 107 64 67 168 146 162 155 161 162 162 162 151 146 147 139 137 127 124 122 125 125 121 123 122 126 121 116 114 107 102 102 99 109 101 86 82 104
349 42 52 86 111 102 126 148 133 106 81 94 100 93 56 46 145 147 155 161 160 158 156 154 149 144 140 137 133 132 131 133 129 128 127 128 124 121 113 109 112 106 102 104 114 103 88 83 124
17 95 81 116 118 91 119 149 113 101 105 104 91 95 38 144 146 154 158 159 159 154 152 152 152 145 139 139 137 137 139 136 131 127 126 131 131 123 113 100 110 107 98 113 120 108 93 91 104
119 83 143 36 122 104 145 151 131 130 125 90 132 86 108 151 150 156 159 158 156 154 149 149 150 147 143 145 144 142 142 141 134 129 129 126 126 122 114 104 104 101 100 116 127 120 96 107 105
104 119 173 39 146 165 152 124 148 128 87 115 145 145 177 178 151 157 157 155 156 154 153 152 148 151 148 145 143 143 144 143 142 135 134 125 121 112 110 106 90 88 97 114 131 126 114 113 106
175 58 21 350 113 27 155 121 173 89 131 122 192 125 154 156 152 144 146 151 155 155 158 155 156 157 151 146 145 144 143 143 142 142 128 126 118 110 106 96 88 73 80 92 113 121 111 113 131
76 103 240 186 33 14 327 139 136 122 138 114 104 113 137 147 146 141 150 154 163 164 166 163 162 159 153 149 151 147 151 154 152 142 133 120 107 107 108 109 106 95 84 93 107 92 81 357 330
172 158 196 257 236 313 333 190 90 146 167 157 145 145 152 152 148 146 158 170 169 168 168 168 164 163 158 158 155 154 153 156 153 144 144 144 140 136 123 112 101 100 90 82 84 58 353 329 327
135 181 178 256 210 250 260 306 129 169 163 157 149 153 155 157 157 164 161 175 172 172 170 169 169 166 164 161 155 151 158 156 155 157 165 169 167 161 149 125 11 289 307 353 338 334 334 332 327
184 169 172 200 116 204 334 276 259 197 149 148 150 157 161 159 166 168 170 172 174 175 176 166 167 168 166 164 161 165 167 168 170 166 177 183 182 174 173 44 63 62 19 359 312 332 347 5 6
163 156 179 234 218 257 208 222 251 188 152 155 162 163 165 162 164 165 170 174 180 178 180 166 166 167 170 167 167 167 168 167 167 174 176 185 196 198 196 53 48 44 24 335 351 18 1 356 357
119 130 104 161 159 323 308 239 197 166 163 165 172 168 166 165 165 174 178 178 180 181 180 179 173 176 179 171 166 175 175 177 178 177 169 196 219 198 132 106 56 54 45 21 31 359 319 331 337
171 134 168 78 218 334 326 262 260 163 167 175 177 160 168 173 170 181 176 175 183 181 183 182 187 186 192 189 196 195 182 172 161 152 172 178 170 160 84 107 80 84 40 39 20 343 291 303 274
6 21 37 106 14 88 17 306 233 174 172 181 178 164 165 165 170 176 176 174 179 176 169 162 171 178 188 195 191 188 186 178 182 165 162 148 136 110 123 94 97 53 43 46 57 25 27 215 224
47 124 62 83 55 65 355 198 306 202 177 185 179 153 162 166 178 176 176 178 177 175 169 154 150 153 168 167 180 190 195 180 177 173 177 159 155 120 127 141 120 90 69 56 62 44 54 64 236
83 74 107 102 107 38 263 299 303 327 223 201 164 162 167 171 176 174 176 179 180 182 172 163 157 154 160 158 157 169 181 186 180 171 170 166 164 158 144 152 154 118 91 64 58 68 82 70 41
122 121 111 115 165 209 212 248 250 292 278 326 192 170 173 157 164 173 175 182 184 183 178 176 172 165 166 169 173 170 182 191 187 193 188 171 179 196 134 140 148 133 87 75 66 59 65 57 47
130 146 182 146 160 161 214 322 238 249 214 311 323 173 171 162 168 173 177 184 182 184 184 180 174 172 172 174 171 175 175 179 195 187 194 186 185 175 201 184 102 126 102 89 82 57 58 60 63
189 179 165 133 140 178 180 269 207 212 217 230 255 206 171 169 169 171 179 183 187 186 185 182 179 175 178 180 176 184 185 183 195 195 201 197 195 204 188 223 188 117 154 134 110 76 56 64 83
190 128 135 151 118 125 193 263 229 202 207 221 225 211 187 174 170 176 183 181 191 188 190 186 184 179 178 180 189 190 198 203 207 202 207 212 217 208 205 197 192 187 160 156 118 109 79 61 72
127 106 105 189 130 62 166 193 242 197 216 202 208 191 202 180 181 177 179 178 182 187 188 191 190 188 185 190 194 197 205 204 197 206 218 218 221 217 219 211 207 209 196 170 163 149 95 71 70
95 132 58 359 42 219 148 178 246 217 217 197 168 181 189 181 178 176 165 174 175 181 190 195 195 195 197 198 201 207 210 215 217 219 226 223 222 219 219 214 214 221 225 208 188 169 191 175 107
182 163 157 190 168 185 175 223 253 157 194 183 205 191 178 187 188 179 174 176 182 183 189 192 198 201 203 205 206 208 209 213 221 230 231 231 223 224 223 220 214 207 220 206 187 185 175 175 172
208 205 198 111 17 89 228 276 295 238 187 167 207 210 181 200 201 182 179 181 183 184 189 197 201 207 206 206 206 208 212 216 215 229 234 218 222 220 223 224 214 213 219 215 208 207 198 190 217
177 160 106 8 149 183 280 283 232 170 190 192 195 188 188 184 174 169 181 187 190 189 196 200 204 206 208 209 210 216 213 218 228 234 234 230 226 222 233 222 224 221 230 232 235 232 212 197 237
201 231 47 116 137 153 180 262 213 207 185 180 184 182 177 175 161 170 194 188 188 187 196 199 206 205 207 210 212 214 213 219 221 229 223 228 232 235 226 223 220 228 231 230 232 237 226 227 245
109 173 143 133 218 197 175 268 359 141 160 155 180 173 174 182 174 162 170 172 173 181 190 195 202 206 208 206 211 217 223 222 226 225 229 226 227 227 237 223 226 252 232 242 235 226 229 244 255
Height
775 777 778 778 796 796 798 797 778 785 790 777 781 787 799 799 804 828 803 808 812 816 819 820 822 822 824 824 825 825 826 828 829 830 830 830 831 830 831 831 832 831 832 832 833 834 834 834 835
775 777 778 781 805 817 812 789 793 784 781 776 784 788 798 810 802 805 808 811 814 817 821 823 824 825 826 827 827 829 829 830 831 832 832 832 832 833 834 833 833 833 835 835 836 836 837 837 836
774 775 781 790 808 817 814 792 788 782 777 780 791 788 796 810 806 806 808 811 815 819 822 824 826 827 828 829 829 830 831 832 831 833 834 834 835 835 835 835 835 836 838 838 839 839 839 839 839
772 775 779 796 804 792 793 789 784 783 780 780 788 802 801 803 805 807 810 813 817 820 823 826 827 829 830 830 832 832 833 834 834 834 835 836 838 838 837 838 839 839 840 841 842 843 842 842 843
772 775 797 798 796 786 784 783 782 787 788 790 790 810 811 809 807 808 812 816 818 822 825 826 828 830 831 833 834 835 835 836 836 837 838 840 840 840 840 841 841 842 843 844 845 846 846 845 845
780 782 803 805 795 785 785 782 785 789 791 795 801 807 815 811 809 812 815 818 821 824 826 828 830 831 832 833 834 836 837 838 839 840 841 841 842 842 843 843 844 844 845 846 848 848 849 849 849
782 791 800 796 796 792 788 780 785 790 791 796 795 816 816 814 815 816 819 821 824 826 828 830 831 832 834 835 835 837 839 840 842 842 842 842 844 845 846 847 846 846 847 847 849 851 851 852 853
780 789 794 793 797 799 781 780 778 781 795 789 794 816 821 814 819 821 822 824 826 829 829 831 833 834 835 835 837 839 840 841 843 844 844 846 847 848 848 848 848 848 849 849 851 852 854 855 855
778 798 806 801 793 793 778 784 782 779 789 791 791 799 806 813 819 823 825 827 828 830 831 833 834 834 835 836 838 840 841 842 844 845 848 848 849 848 848 849 850 851 851 852 853 854 856 857 857
784 801 799 789 791 795 785 779 784 791 797 799 798 803 811 815 818 820 824 826 828 830 832 834 835 836 837 838 840 842 842 843 846 847 849 850 850 849 850 850 851 853 854 855 856 857 858 858 858
784 797 792 785 788 789 790 785 780 794 803 796 801 806 812 818 820 821 824 825 827 830 833 836 836 837 838 839 841 842 843 845 847 850 851 851 851 852 853 853 854 855 856 856 857 857 858 858 858
789 784 787 784 784 787 792 788 785 787 787 789 794 800 809 818 819 821 823 827 829 831 833 835 838 839 840 841 843 844 846 848 850 851 851 852 853 854 855 856 856 856 856 857 857 857 857 857 857
783 783 785 783 786 787 790 790 790 789 784 790 796 804 807 814 820 822 824 827 830 832 834 836 838 841 842 843 845 847 848 850 852 852 853 854 854 855 856 857 857 857 857 858 857 858 857 857 857
768 778 783 782 788 790 794 790 793 787 786 792 797 804 807 811 818 823 826 827 828 832 834 836 839 841 843 846 847 848 850 851 852 853 854 854 855 856 857 857 857 857 858 858 858 858 858 858 857
770 787 793 794 792 796 791 795 794 781 789 793 797 804 807 811 816 819 822 824 826 830 834 836 839 842 843 846 848 849 851 852 853 854 854 855 855 857 857 857 857 858 858 858 858 858 858 858 858
778 782 800 799 795 800 797 808 788 782 788 795 797 804 807 809 812 817 820 824 826 830 833 837 839 840 842 845 848 850 851 853 853 854 855 856 857 858 857 857 857 858 858 858 858 858 858 858 859
791 804 800 808 800 798 805 807 792 785 787 796 794 800 805 811 815 818 821 822 824 830 833 836 837 838 841 844 847 850 852 854 854 855 856 856 857 859 859 859 860 860 860 860 859 857 857 858 859
805 809 813 813 807 808 815 809 800 794 794 790 794 799 804 809 810 814 818 822 824 829 833 835 837 839 842 843 846 850 853 854 854 855 856 858 858 860 860 860 861 861 862 860 860 858 857 858 858
792 802 813 814 811 811 816 815 812 804 798 797 798 799 803 804 808 813 817 821 824 829 832 834 836 839 842 844 846 849 852 854 855 856 857 857 859 860 861 861 861 863 863 861 859 859 860 859 858
790 808 818 816 814 819 816 816 814 811 805 802 798 797 800 803 811 814 817 822 823 826 829 832 835 838 842 844 846 849 851 854 856 857 857 858 859 860 860 862 862 862 862 861 860 860 860 860 858
801 803 811 809 815 814 817 818 813 808 801 800 796 793 796 798 807 813 816 819 822 824 826 830 833 837 841 844 846 849 851 853 856 857 858 858 858 859 860 860 860 860 861 861 862 863 861 861 860
807 784 795 807 816 828 817 826 806 806 807 801 799 798 796 798 802 807 813 816 819 822 826 830 832 835 839 843 845 848 850 852 854 857 858 859 859 859 860 860 860 861 861 862 863 863 862 862 861
793 784 797 807 817 819 819 830 805 801 803 799 798 798 797 794 797 802 807 811 816 820 824 828 832 835 837 840 843 846 848 851 853 855 856 857 858 859 859 861 862 862 862 863 863 863 863 863 862
780 799 808 812 815 827 810 820 808 801 792 786 794 795 796 794 797 799 804 811 815 820 824 827 830 833 836 838 841 844 847 849 851 853 853 854 855 857 858 860 861 861 862 861 862 863 864 864 864
787 813 836 830 831 827 814 823 804 783 776 777 786 792 792 792 795 799 803 809 813 817 821 824 827 830 834 836 838 840 844 847 849 850 851 852 853 854 856 857 859 861 861 862 862 862 863 864 864
796 800 821 828 835 826 813 815 789 769 769 772 780 785 789 791 791 795 797 803 807 812 818 821 824 828 831 835 837 839 842 844 846 849 849 850 851 853 855 857 859 860 861 862 861 862 862 863 863
787 799 782 812 818 824 811 788 774 764 770 771 778 777 786 790 792 791 795 799 803 809 813 818 821 826 829 831 835 838 841 843 844 847 848 849 849 851 853 854 856 859 860 861 861 861 861 861 861
770 767 796 808 824 832 817 804 792 772 767 762 766 769 772 780 787 789 793 796 800 803 809 814 818 823 827 831 834 837 839 842 844 845 846 848 849 850 851 852 853 855 858 859 859 859 859 860 860
774 779 785 792 803 822 829 801 755 748 748 754 756 757 765 770 775 784 791 793 796 798 806 809 815 819 824 829 833 837 839 842 843 844 845 846 847 848 849 850 852 853 854 856 856 856 857 857 858
756 775 780 798 798 803 803 787 742 743 745 750 753 756 763 768 773 775 786 792 794 796 802 806 811 817 821 825 831 835 839 841 843 844 845 845 846 847 847 848 850 851 852 853 853 854 855 855 855